EHI
31 34 34 28 24 25 24 22 23 24 23 21 18 15 11 7 4 2 2 1 0 0 1 2 4 5 4 1 0 0 0 0 0 0 0 0 0 0 1 1 1 0 0
41 41 37 29 24 23 20 18 19 20 20 19 16 13 10 7 4 3 1 0 0 0 1 2 3 3 2 1 0 0 0 0 0 0 0 0 0 0 0 0 0 1 1
49 45 40 33 26 22 18 16 17 17 17 17 13 9 6 5 4 4 2 0 0 0 1 1 1 1 1 0 0 0 0 0 0 0 0 0 0 0 0 1 1 1 2
44 43 40 36 30 24 20 19 19 19 18 16 10 5 3 4 5 5 3 2 1 1 0 0 0 0 0 0 0 0 0 1 0 0 0 0 0 0 0 1 1 1 1
37 38 38 35 32 28 25 24 22 21 18 14 7 3 3 5 7 6 6 5 4 2 1 0 1 1 1 1 0 0 0 0 0 0 0 0 0 0 0 1 1 0 0
32 34 36 36 36 34 31 28 23 19 14 10 6 3 2 4 6 7 7 7 5 3 1 0 1 2 2 1 0 0 0 0 0 0 0 1 0 0 0 0 0 0 0
29 33 37 39 40 40 35 27 20 15 10 6 5 5 2 2 3 4 5 5 4 2 1 1 1 1 1 1 0 0 0 0 0 0 0 0 0 0 0 0 0 0 0
27 32 37 39 40 40 33 24 16 12 8 5 6 7 4 1 1 2 3 3 2 2 2 2 1 0 0 0 0 0 0 0 0 0 0 0 0 0 0 0 0 0 0
24 28 34 37 39 37 30 21 16 12 7 5 7 8 5 1 0 1 1 1 1 1 1 1 1 0 0 0 0 0 0 0 0 0 0 0 0 0 0 0 0 0 0
18 23 29 34 36 34 26 19 15 11 6 4 5 6 4 1 0 0 0 0 0 0 0 0 0 0 0 0 0 0 0 0 0 0 0 0 0 0 0 0 0 0 0
14 19 27 32 32 29 22 16 13 10 6 3 2 3 2 1 0 0 0 0 0 0 0 0 0 0 0 0 0 0 0 0 0 0 0 0 0 0 0 0 0 0 0
18 22 28 31 29 24 18 14 12 10 7 5 3 2 2 1 1 0 0 0 0 0 0 0 0 0 0 0 0 0 0 0 0 0 0 0 0 0 0 0 0 0 0
24 27 31 31 27 23 18 14 12 10 7 7 5 2 2 2 1 0 0 0 0 0 0 0 0 0 0 0 0 0 0 0 0 0 0 0 0 0 0 0 0 0 0
24 27 31 30 26 23 19 15 13 10 8 7 5 3 1 1 1 0 0 0 0 0 0 0 0 0 0 0 0 0 0 0 0 0 0 0 0 0 0 0 0 0 0
18 23 28 29 26 23 21 17 13 10 8 7 6 5 3 1 1 0 0 0 0 0 0 0 0 0 0 0 0 0 0 0 0 0 0 0 0 0 0 0 0 0 0
13 17 23 27 27 24 22 19 14 10 8 8 7 7 6 3 2 1 1 1 1 1 1 1 0 0 0 0 0 0 0 0 0 0 0 0 0 0 0 0 0 0 0
11 12 16 22 25 24 22 19 16 12 10 8 7 7 6 4 3 3 2 3 3 3 3 2 1 0 0 0 0 0 0 0 0 0 0 0 0 0 0 0 0 0 0
9 9 10 14 20 22 22 19 16 13 10 7 7 6 5 4 4 4 4 5 6 6 6 4 1 0 0 0 0 0 0 0 0 0 0 0 0 0 0 0 0 0 0
7 7 6 10 18 24 24 21 16 13 10 8 8 8 7 6 6 6 7 8 9 9 7 5 2 1 0 0 0 0 0 0 0 0 0 0 0 0 0 0 0 0 0
6 6 6 12 21 27 27 23 19 15 12 10 11 12 12 10 10 11 11 11 10 9 6 4 3 3 1 0 0 0 0 0 1 0 0 0 0 0 0 0 0 0 0
7 8 11 18 25 29 29 26 23 19 15 14 16 18 18 15 13 14 15 14 12 8 5 4 4 4 2 0 0 0 0 0 0 0 0 1 0 0 0 0 0 0 0
10 13 18 24 28 29 30 28 25 21 19 20 22 24 24 19 15 15 16 16 13 8 5 4 5 4 2 0 0 0 0 0 0 0 0 0 0 0 0 0 0 0 0
15 18 22 27 29 28 28 28 26 24 25 28 30 30 28 23 18 16 15 15 11 8 5 5 6 4 2 1 0 0 0 0 0 0 0 0 0 0 0 0 0 0 0
19 22 25 25 24 23 25 26 27 28 29 30 30 29 27 24 20 15 12 11 9 7 6 7 7 5 3 1 0 0 0 0 0 0 0 0 0 0 0 0 0 0 0
20 23 24 21 17 17 20 23 26 29 30 27 25 22 21 20 18 12 8 6 4 4 5 6 5 4 3 1 0 0 0 0 0 0 0 0 0 0 0 0 0 0 0
19 21 21 18 13 13 17 21 25 27 29 27 22 18 16 17 15 9 4 2 1 1 2 3 3 2 1 0 0 0 0 0 0 0 0 0 0 0 0 0 0 0 0
Wind_Speed
13 13 13 13 13 12 13 13 13 12 10 8 8 7 6 6 5 5 6 5 4 5 4 3 4 3 2 2 3 2 3 2 2 2 2 3 3 2 2 2 2 3 3
14 14 14 13 13 14 14 13 13 13 12 8 7 6 6 5 5 4 5 5 5 5 4 3 4 3 2 2 2 2 2 1 2 2 3 3 4 4 2 2 2 2 3
16 15 15 15 14 15 15 13 13 13 12 10 7 7 6 5 5 6 5 5 5 5 3 4 3 3 3 2 2 2 3 2 2 2 3 3 2 4 4 2 2 2 2
15 16 16 15 15 15 14 14 14 13 12 11 10 11 8 8 7 6 6 7 6 5 5 4 4 3 2 3 3 2 2 3 3 3 1 2 2 2 3 4 4 3 2
16 16 16 16 15 15 14 13 14 13 13 12 11 10 9 7 6 7 8 7 6 6 6 5 4 3 2 2 1 2 2 2 2 2 2 2 1 4 3 2 3 4 3
15 15 15 15 14 14 14 13 14 13 12 12 12 11 10 9 9 9 8 7 6 6 6 5 4 4 3 3 3 2 3 1 0 1 1 2 2 2 2 2 3 2 3
15 16 17 17 16 16 15 14 15 14 14 14 12 12 11 11 10 9 8 7 6 6 7 6 5 4 4 3 3 3 2 2 2 1 1 0 1 1 2 2 2 2 2
15 16 17 17 16 17 16 15 15 14 14 14 12 11 12 9 8 8 8 7 6 6 7 7 6 5 5 5 4 3 4 3 2 2 1 1 0 1 1 2 2 3 3
14 15 17 17 17 17 17 16 15 15 15 14 12 11 11 10 9 9 8 7 6 7 8 7 7 6 6 5 5 3 3 3 3 4 4 2 2 1 0 1 3 4 3
13 14 15 16 16 16 16 16 15 15 15 14 12 11 11 11 10 10 9 8 8 7 9 8 8 7 7 6 5 5 4 4 3 1 1 1 1 0 1 1 1 3 4
12 14 14 15 16 16 16 15 15 15 14 14 13 12 12 11 11 10 10 9 9 9 9 8 8 8 7 6 5 4 5 5 4 4 4 3 1 1 1 1 1 2 3
11 13 15 15 15 16 16 15 15 15 15 14 14 14 13 12 12 11 11 10 10 10 9 9 8 8 8 7 6 6 5 5 5 4 4 4 3 2 2 1 2 1 2
10 13 14 15 15 15 15 15 16 15 15 14 14 14 14 13 13 12 11 11 10 10 10 9 9 8 8 8 7 6 6 5 5 5 5 4 4 4 2 3 2 2 2
10 12 13 14 14 14 14 15 16 16 15 15 15 15 14 14 13 12 12 11 11 11 10 10 9 9 9 8 8 7 6 6 5 5 5 5 5 5 4 4 4 3 4
11 12 13 14 14 15 14 15 15 15 15 15 15 15 14 13 13 13 12 12 11 11 11 10 10 9 8 8 8 8 8 7 7 6 6 6 3 1 3 4 3 4 5
11 13 14 14 16 16 15 15 15 15 15 16 15 15 14 14 14 13 13 12 12 11 11 11 10 10 8 7 6 7 7 7 7 7 7 6 7 7 7 6 6 6 7
10 12 13 14 14 15 15 16 15 15 15 15 15 15 15 15 14 14 14 13 13 12 11 11 11 11 8 10 10 8 7 8 7 7 7 7 6 8 8 9 10 11 11
7 9 11 12 14 15 15 15 15 16 16 16 16 16 15 15 14 14 14 14 12 12 11 11 11 10 10 12 12 10 10 8 8 8 8 8 7 7 6 7 8 9 9
6 8 10 11 12 14 15 15 15 16 16 17 16 16 16 16 15 15 15 13 12 12 11 11 11 11 10 13 13 11 9 8 9 9 9 9 9 5 4 8 9 9 8
4 6 8 10 12 13 14 16 16 17 17 17 16 16 16 16 16 15 14 13 12 12 11 11 11 11 11 13 14 14 9 9 8 8 8 8 9 5 7 9 9 9 8
4 5 7 9 10 12 14 15 16 17 16 15 15 15 15 15 15 14 12 12 11 11 11 11 10 11 10 13 15 15 10 8 8 7 7 6 11 9 9 9 9 7 7
4 5 7 8 9 11 13 14 15 14 14 14 14 14 14 14 13 13 12 12 12 11 11 10 10 9 9 9 13 15 14 9 8 7 6 3 9 9 10 9 7 6 7
3 4 6 7 8 10 12 13 13 13 13 14 14 13 14 12 12 13 13 12 11 10 10 10 9 8 8 8 11 14 14 12 9 6 2 1 6 7 9 12 10 9 9
2 4 6 7 7 9 10 10 11 12 13 13 13 12 12 12 11 10 11 11 11 10 10 9 9 8 8 8 9 9 10 11 11 9 6 8 9 9 8 7 9 9 8
2 4 5 6 7 8 8 9 10 12 12 12 12 12 12 11 10 9 7 9 8 8 8 8 8 8 8 7 7 7 7 7 7 6 7 7 7 8 8 8 7 7 7
2 3 4 5 6 7 8 8 9 11 12 11 11 10 10 10 9 9 8 4 3 5 4 1 3 4 3 7 8 6 4 4 5 5 7 7 7 7 7 6 6 7 7
Wind_Direction
181 177 180 179 177 178 177 177 174 168 167 167 169 167 165 167 165 159 151 160 162 165 178 167 157 186 176 183 190 196 179 185 189 202 177 168 162 151 167 192 171 161 165
182 179 179 180 181 179 177 176 175 172 176 173 170 168 158 164 159 154 151 159 165 171 170 165 172 163 154 170 184 209 230 190 209 244 219 199 172 171 159 172 175 163 161
185 181 182 185 184 182 178 178 177 176 178 169 165 159 152 160 160 162 159 163 165 165 162 164 165 165 192 164 191 204 217 211 191 252 264 248 196 153 144 151 137 140 153
187 184 183 186 187 182 179 178 176 176 175 174 177 175 175 174 171 167 156 157 160 160 162 159 156 177 177 159 198 166 213 218 200 177 247 322 359 252 165 161 143 137 142
189 186 185 186 185 179 177 175 173 176 177 181 179 182 180 172 162 159 152 158 156 162 160 156 155 166 166 151 150 151 214 209 228 206 188 184 195 255 250 180 158 158 145
188 185 183 180 180 176 173 171 171 175 178 182 181 183 178 171 164 165 160 167 160 162 159 158 159 166 153 154 160 164 163 160 115 265 236 234 240 240 248 213 195 172 132
185 181 180 179 178 175 172 171 172 175 178 181 181 180 177 175 173 171 171 174 165 165 163 161 163 157 150 153 152 156 147 152 150 200 207 245 300 309 284 262 229 204 172
186 183 181 179 179 177 173 173 174 176 177 180 178 177 176 178 175 179 174 177 172 162 155 161 161 157 159 157 153 159 155 147 161 154 128 202 156 299 290 286 266 236 210
185 183 181 180 178 177 176 177 176 175 176 178 175 177 178 180 174 172 180 173 168 159 161 165 164 164 162 161 169 147 154 155 174 165 168 198 134 205 312 298 292 286 264
179 178 177 178 176 176 176 176 177 176 175 176 180 178 180 179 174 177 179 172 168 161 165 169 169 169 167 167 174 163 151 161 162 156 130 228 177 129 218 264 283 293 293
176 174 174 174 173 173 173 176 177 177 177 179 181 179 179 178 177 179 177 174 172 170 174 173 173 174 172 171 175 170 164 177 171 180 177 193 246 241 230 226 251 267 281
171 169 169 170 173 174 174 176 178 179 179 178 179 180 179 179 181 181 179 178 177 180 178 178 179 181 178 178 182 184 178 186 188 189 190 194 185 202 257 257 256 265 288
167 166 167 171 174 176 176 177 179 179 178 177 180 181 180 182 184 181 180 180 181 182 180 181 184 186 184 186 191 191 191 199 198 196 198 198 196 210 210 242 245 242 238
168 168 170 173 175 176 178 179 181 179 178 179 182 183 183 183 183 181 180 181 182 183 184 186 189 190 190 191 193 194 199 203 204 205 208 209 210 212 215 222 233 252 260
176 175 176 176 177 179 180 181 181 179 179 181 185 185 184 183 183 181 182 183 185 188 187 190 193 195 196 198 194 197 200 204 208 208 216 218 220 269 257 264 242 240 255
186 183 181 180 182 182 182 181 182 180 181 184 187 185 184 184 184 184 184 184 188 191 190 194 197 199 203 163 179 218 208 208 215 217 220 213 206 210 224 254 272 280 268
191 190 187 186 185 185 184 183 181 179 183 187 187 185 185 186 186 186 186 188 189 190 194 198 201 204 191 162 180 210 230 220 219 221 224 234 207 205 223 215 223 237 242
198 194 192 189 188 185 183 184 181 181 184 187 188 186 187 187 187 188 190 190 191 192 196 200 203 205 192 174 186 195 222 231 226 226 226 235 234 227 237 243 239 242 232
214 204 200 193 189 185 181 182 182 183 187 188 189 187 188 188 187 190 191 191 192 195 199 201 203 206 194 179 186 195 216 222 227 230 229 232 234 198 210 248 254 258 256
221 209 202 192 186 185 180 184 186 187 192 190 188 187 188 189 190 191 191 191 194 198 201 201 203 206 205 182 185 198 222 220 223 220 225 225 237 200 197 238 250 257 264
223 206 196 189 183 181 181 189 190 193 193 189 186 185 188 191 190 188 190 190 194 197 203 200 202 207 208 182 186 198 226 228 227 227 224 209 188 205 209 235 255 265 279
222 200 190 185 179 180 183 189 193 191 187 186 186 186 188 190 186 185 186 190 193 195 199 202 205 204 202 198 190 196 217 248 243 244 245 203 168 193 211 227 243 249 260
223 198 185 178 177 181 186 189 188 183 182 183 185 185 185 189 185 184 185 187 192 199 197 198 203 204 197 191 187 194 209 223 239 248 273 214 182 206 223 229 232 235 244
207 190 180 175 178 182 187 189 181 179 180 181 180 179 181 183 183 186 187 191 191 197 199 199 202 201 196 196 187 194 202 210 225 238 221 207 214 233 253 237 220 231 244
186 177 177 173 173 175 178 179 175 174 176 177 177 179 181 181 179 182 188 195 195 199 202 201 200 202 202 194 184 196 201 208 213 220 229 230 223 224 228 234 236 238 237
160 163 168 170 168 167 168 171 169 172 174 174 177 180 179 176 177 174 176 161 179 155 173 192 218 197 161 148 162 178 184 170 169 212 235 236 239 245 247 246 243 242 248